When you browse on this site, cookies collect data to enhance your experience and personalize the content and advertising you see.
Visit our Privacy Policy to learn more. By continuing to use the site, you agree to this use of cookies and data.
  • In Hungary
  • List of Countries
  • For 7 days
  • Water Temperature
  • Satellite Maps
  • Weather Map
  • News
  • Weather Widgets
  • user-avatar
    Login

    Hourly Weather Bocas del Toro

    Today, 17 January, Thursday

    Time Temperature Precipitation Wind Pressure Humidity
    00:00 +23°C° 0.1 mm 4 mps 761 mmHg 67%
    01:00 +24°C° 0 mm 3 mps 761 mmHg 70%
    02:00 +24°C° 0 mm 3 mps 761 mmHg 69%
    03:00 +23°C° 0 mm 4 mps 761 mmHg 68%
    04:00 +23°C° 0 mm 4 mps 760 mmHg 67%
    05:00 +22°C° 0 mm 4 mps 761 mmHg 67%
    06:00 +22°C° 0 mm 4 mps 761 mmHg 66%
    07:00 +22°C° 0 mm 4 mps 761 mmHg 65%
    08:00 +26°C° 0 mm 4 mps 761 mmHg 59%
    09:00 +28°C° 0 mm 3 mps 762 mmHg 53%
    10:00 +30°C° 0 mm 3 mps 762 mmHg 47%
    11:00 +31°C° 0 mm 3 mps 762 mmHg 45%
    12:00 +33°C° 0 mm 3 mps 761 mmHg 42%
    13:00 +34°C° 0 mm 3 mps 761 mmHg 40%
    14:00 +33°C° 0.1 mm 3 mps 760 mmHg 42%
    15:00 +33°C° 0.1 mm 3 mps 760 mmHg 44%
    16:00 +31°C° 0.1 mm 3 mps 759 mmHg 46%
    17:00 +29°C° 0.1 mm 3 mps 759 mmHg 53%
    18:00 +27°C° 0.1 mm 3 mps 759 mmHg 60%
    19:00 +25°C° 0.1 mm 3 mps 759 mmHg 68%
    20:00 +24°C° 0.1 mm 3 mps 760 mmHg 63%
    21:00 +24°C° 0.1 mm 3 mps 760 mmHg 57%
    22:00 +24°C° 0.1 mm 3 mps 760 mmHg 52%
    23:00 +23°C° 0 mm 4 mps 760 mmHg 55%

    Tomorrow, 18 January, Friday

    Time Temperature Precipitation Wind Pressure Humidity
    00:00 +23°C° 0 mm 4 mps 760 mmHg 58%
    01:00 +23°C° 0 mm 4 mps 760 mmHg 61%
    02:00 +23°C° 0 mm 4 mps 760 mmHg 64%
    03:00 +23°C° 0 mm 5 mps 760 mmHg 66%
    04:00 +23°C° 0 mm 5 mps 759 mmHg 69%
    05:00 +23°C° 0 mm 4 mps 760 mmHg 67%
    06:00 +23°C° 0 mm 4 mps 760 mmHg 64%
    07:00 +23°C° 0 mm 4 mps 760 mmHg 62%
    08:00 +26°C° 0 mm 4 mps 760 mmHg 58%
    09:00 +28°C° 0 mm 4 mps 761 mmHg 55%
    10:00 +32°C° 0 mm 4 mps 761 mmHg 52%
    11:00 +32°C° 0 mm 4 mps 760 mmHg 49%
    12:00 +33°C° 0 mm 4 mps 760 mmHg 47%
    13:00 +34°C° 0 mm 4 mps 759 mmHg 45%
    14:00 +34°C° 0 mm 4 mps 759 mmHg 46%
    15:00 +33°C° 0 mm 4 mps 758 mmHg 47%
    16:00 +33°C° 0 mm 5 mps 758 mmHg 48%
    17:00 +30°C° 0.1 mm 4 mps 758 mmHg 57%
    18:00 +27°C° 0.1 mm 4 mps 758 mmHg 65%
    19:00 +25°C° 0.1 mm 3 mps 758 mmHg 73%
    20:00 +25°C° 0.3 mm 3 mps 759 mmHg 70%
    21:00 +25°C° 0.3 mm 3 mps 759 mmHg 68%
    22:00 +25°C° 0.3 mm 3 mps 760 mmHg 65%
    23:00 +25°C° 0.1 mm 3 mps 760 mmHg 64%

    Day after tomorrow, 19 January, Saturday

    Time Temperature Precipitation Wind Pressure Humidity
    00:00 +25°C° 0.1 mm 3 mps 760 mmHg 64%
    01:00 +25°C° 0.1 mm 4 mps 759 mmHg 64%
    02:00 +25°C° 0 mm 4 mps 759 mmHg 67%
    03:00 +25°C° 0 mm 4 mps 759 mmHg 70%
    04:00 +25°C° 0 mm 4 mps 758 mmHg 73%
    05:00 +25°C° 0 mm 3 mps 759 mmHg 73%
    06:00 +25°C° 0 mm 3 mps 759 mmHg 74%
    07:00 +25°C° 0 mm 3 mps 759 mmHg 75%
    08:00 +27°C° 0 mm 3 mps 759 mmHg 67%
    09:00 +30°C° 0 mm 3 mps 760 mmHg 60%
    10:00 +32°C° 0 mm 2 mps 760 mmHg 52%
    11:00 +34°C° 0 mm 2 mps 760 mmHg 50%
    12:00 +34°C° 0 mm 2 mps 759 mmHg 48%
    13:00 +35°C° 0 mm 2 mps 759 mmHg 46%
    14:00 +34°C° 0.2 mm 2 mps 758 mmHg 48%
    15:00 +34°C° 0.2 mm 2 mps 757 mmHg 50%
    16:00 +33°C° 0.2 mm 3 mps 757 mmHg 53%
    17:00 +30°C° 0.4 mm 2 mps 757 mmHg 63%
    18:00 +28°C° 0.4 mm 2 mps 757 mmHg 73%
    19:00 +26°C° 0.4 mm 2 mps 758 mmHg 82%
    20:00 +26°C° 0.5 mm 2 mps 758 mmHg 82%
    21:00 +25°C° 0.5 mm 2 mps 759 mmHg 81%
    22:00 +25°C° 0.5 mm 2 mps 759 mmHg 80%
    23:00 +25°C° 0.1 mm 2 mps 759 mmHg 78%

    20 January, Sunday

    Time Temperature Precipitation Wind Pressure Humidity
    00:00 +25°C° 0.1 mm 3 mps 759 mmHg 76%
    01:00 +26°C° 0.1 mm 3 mps 759 mmHg 74%
    02:00 +26°C° 0 mm 3 mps 759 mmHg 74%
    03:00 +25°C° 0 mm 3 mps 758 mmHg 75%
    04:00 +25°C° 0 mm 3 mps 758 mmHg 76%
    05:00 +25°C° 0.1 mm 4 mps 758 mmHg 77%
    06:00 +25°C° 0.1 mm 4 mps 758 mmHg 78%
    07:00 +25°C° 0.1 mm 4 mps 759 mmHg 79%
    08:00 +27°C° 0.2 mm 4 mps 759 mmHg 72%
    09:00 +29°C° 0.2 mm 4 mps 760 mmHg 64%
    10:00 +32°C° 0.2 mm 4 mps 760 mmHg 56%
    11:00 +33°C° 0.4 mm 4 mps 760 mmHg 54%
    12:00 +34°C° 0.4 mm 4 mps 759 mmHg 51%
    13:00 +35°C° 0.4 mm 4 mps 759 mmHg 49%
    14:00 +34°C° 1.3 mm 4 mps 758 mmHg 52%
    15:00 +33°C° 1.3 mm 4 mps 758 mmHg 55%
    16:00 +33°C° 1.3 mm 4 mps 757 mmHg 57%
    17:00 +30°C° 2.6 mm 4 mps 758 mmHg 66%
    18:00 +28°C° 2.6 mm 3 mps 758 mmHg 76%
    19:00 +26°C° 2.6 mm 3 mps 759 mmHg 85%
    20:00 +25°C° 2.5 mm 3 mps 759 mmHg 87%
    21:00 +25°C° 2.5 mm 3 mps 760 mmHg 90%
    22:00 +24°C° 2.5 mm 3 mps 761 mmHg 93%
    23:00 +23°C° 1.2 mm 4 mps 761 mmHg 93%

    21 January, Monday

    Time Temperature Precipitation Wind Pressure Humidity
    00:00 +23°C° 1.2 mm 4 mps 760 mmHg 93%
    01:00 +23°C° 1.2 mm 5 mps 760 mmHg 93%
    02:00 +23°C° 0.3 mm 5 mps 760 mmHg 88%
    03:00 +23°C° 0.3 mm 5 mps 760 mmHg 83%
    04:00 +23°C° 0.3 mm 5 mps 759 mmHg 79%
    05:00 +23°C° 0.1 mm 5 mps 760 mmHg 77%
    06:00 +23°C° 0.1 mm 4 mps 760 mmHg 75%
    07:00 +23°C° 0.1 mm 4 mps 760 mmHg 73%
    08:00 +26°C° 0 mm 4 mps 761 mmHg 66%
    09:00 +28°C° 0 mm 4 mps 761 mmHg 59%
    10:00 +30°C° 0 mm 4 mps 762 mmHg 53%
    11:00 +32°C° 0.1 mm 4 mps 761 mmHg 50%
    12:00 +33°C° 0.1 mm 4 mps 760 mmHg 47%
    13:00 +34°C° 0.1 mm 4 mps 760 mmHg 44%
    14:00 +33°C° 0.8 mm 4 mps 759 mmHg 50%
    15:00 +31°C° 0.8 mm 3 mps 759 mmHg 56%
    16:00 +29°C° 0.8 mm 3 mps 758 mmHg 63%
    17:00 +28°C° 0.8 mm 3 mps 758 mmHg 70%
    18:00 +26°C° 0.8 mm 3 mps 759 mmHg 78%
    19:00 +25°C° 0.8 mm 3 mps 759 mmHg 85%
    20:00 +25°C° 0.4 mm 3 mps 760 mmHg 81%
    21:00 +25°C° 0.4 mm 4 mps 760 mmHg 77%
    22:00 +25°C° 0.4 mm 4 mps 761 mmHg 73%
    23:00 +25°C° 0.2 mm 4 mps 760 mmHg 73%

    22 January, Tuesday

    Time Temperature Precipitation Wind Pressure Humidity
    00:00 +25°C° 0.2 mm 4 mps 760 mmHg 73%
    01:00 +23°C° 0.2 mm 4 mps 760 mmHg 73%
    02:00 +23°C° 0.1 mm 4 mps 760 mmHg 72%
    03:00 +23°C° 0.1 mm 4 mps 759 mmHg 71%
    04:00 +23°C° 0.1 mm 4 mps 759 mmHg 70%
    05:00 +23°C° 0.1 mm 4 mps 759 mmHg 70%
    06:00 +23°C° 0.1 mm 4 mps 760 mmHg 71%
    07:00 +23°C° 0.1 mm 4 mps 760 mmHg 71%
    08:00 +26°C° 0 mm 3 mps 760 mmHg 65%
    09:00 +29°C° 0 mm 3 mps 761 mmHg 58%
    10:00 +31°C° 0 mm 3 mps 761 mmHg 51%
    11:00 +32°C° 0 mm 2 mps 760 mmHg 50%
    12:00 +32°C° 0 mm 2 mps 760 mmHg 48%
    13:00 +34°C° 0 mm 2 mps 759 mmHg 46%
    14:00 +32°C° 0.1 mm 2 mps 758 mmHg 49%
    15:00 +33°C° 0.1 mm 3 mps 758 mmHg 52%
    16:00 +31°C° 0.1 mm 3 mps 757 mmHg 55%
    17:00 +29°C° 0.4 mm 3 mps 758 mmHg 65%
    18:00 +27°C° 0.4 mm 2 mps 758 mmHg 76%
    19:00 +25°C° 0.4 mm 2 mps 758 mmHg 86%
    20:00 +25°C° 0.4 mm 2 mps 759 mmHg 83%
    21:00 +25°C° 0.4 mm 3 mps 759 mmHg 80%
    22:00 +25°C° 0.4 mm 3 mps 760 mmHg 77%
    23:00 +25°C° 0.2 mm 3 mps 759 mmHg 77%
    Show more